When you browse on this site, cookies collect data to enhance your experience and personalize the content and advertising you see.
Visit our Privacy Policy to learn more. By continuing to use the site, you agree to this use of cookies and data.
  • En España
  • Lista de países
  • Para 7 días
  • Temperatura del agua
  • El tiempo en el mapa
  • Informadores
  • user-avatar
    Iniciar sesión

    Tiempo cada hora Kipungo

    Hoy, 1 Junio, Lunes

    Tiempo Temperatura Precipitaciones Viento Presión Humedad
    00:00 +14°C° 0 mm 1 mps 655 mmHg 53%
    01:00 +14°C° 0 mm 1 mps 655 mmHg 56%
    02:00 +13°C° 0 mm 1 mps 654 mmHg 58%
    03:00 +13°C° 0 mm 1 mps 654 mmHg 60%
    04:00 +12°C° 0 mm 1 mps 654 mmHg 62%
    05:00 +12°C° 0 mm 1 mps 654 mmHg 62%
    06:00 +12°C° 0 mm 1 mps 655 mmHg 62%
    07:00 +13°C° 0 mm 1 mps 655 mmHg 62%
    08:00 +16°C° 0 mm 2 mps 656 mmHg 53%
    09:00 +20°C° 0 mm 3 mps 656 mmHg 44%
    10:00 +25°C° 0 mm 3 mps 657 mmHg 35%
    11:00 +27°C° 0 mm 3 mps 657 mmHg 30%
    12:00 +29°C° 0 mm 3 mps 657 mmHg 26%
    13:00 +30°C° 0 mm 2 mps 657 mmHg 21%
    14:00 +30°C° 0 mm 2 mps 656 mmHg 21%
    15:00 +30°C° 0 mm 2 mps 656 mmHg 21%
    16:00 +30°C° 0 mm 1 mps 655 mmHg 20%
    17:00 +27°C° 0 mm 1 mps 655 mmHg 26%
    18:00 +24°C° 0 mm 1 mps 655 mmHg 31%
    19:00 +20°C° 0 mm 1 mps 655 mmHg 37%
    20:00 +19°C° 0 mm 1 mps 655 mmHg 40%
    21:00 +18°C° 0 mm 1 mps 655 mmHg 44%
    22:00 +16°C° 0 mm 1 mps 655 mmHg 47%
    23:00 +14°C° 0 mm 0 mps 654 mmHg 50%

    Mañana, 2 Junio, Martes

    Tiempo Temperatura Precipitaciones Viento Presión Humedad
    00:00 +14°C° 0 mm 0 mps 654 mmHg 54%
    01:00 +13°C° 0 mm 0 mps 654 mmHg 57%
    02:00 +12°C° 0 mm 0 mps 654 mmHg 59%
    03:00 +12°C° 0 mm 0 mps 654 mmHg 61%
    04:00 +12°C° 0 mm 0 mps 654 mmHg 63%
    05:00 +12°C° 0 mm 0 mps 654 mmHg 63%
    06:00 +13°C° 0 mm 0 mps 655 mmHg 62%
    07:00 +13°C° 0 mm 0 mps 655 mmHg 61%
    08:00 +19°C° 0 mm 1 mps 656 mmHg 53%
    09:00 +21°C° 0 mm 2 mps 656 mmHg 44%
    10:00 +26°C° 0 mm 3 mps 657 mmHg 35%
    11:00 +27°C° 0 mm 3 mps 657 mmHg 31%
    12:00 +29°C° 0 mm 2 mps 657 mmHg 27%
    13:00 +31°C° 0 mm 2 mps 656 mmHg 23%
    14:00 +30°C° 0 mm 2 mps 656 mmHg 23%
    15:00 +30°C° 0 mm 1 mps 656 mmHg 23%
    16:00 +30°C° 0 mm 1 mps 655 mmHg 22%
    17:00 +27°C° 0 mm 1 mps 655 mmHg 26%
    18:00 +23°C° 0 mm 0 mps 655 mmHg 29%
    19:00 +21°C° 0 mm 0 mps 655 mmHg 33%
    20:00 +20°C° 0 mm 0 mps 655 mmHg 34%
    21:00 +20°C° 0 mm 0 mps 655 mmHg 35%
    22:00 +22°C° 0 mm 1 mps 655 mmHg 36%
    23:00 +21°C° 0 mm 1 mps 655 mmHg 38%

    Pasado mañana, 3 Junio, Miércoles

    Tiempo Temperatura Precipitaciones Viento Presión Humedad
    00:00 +20°C° 0 mm 1 mps 655 mmHg 41%
    01:00 +19°C° 0 mm 1 mps 654 mmHg 44%
    02:00 +16°C° 0 mm 0 mps 654 mmHg 46%
    03:00 +15°C° 0 mm 0 mps 654 mmHg 48%
    04:00 +15°C° 0 mm 0 mps 653 mmHg 50%
    05:00 +15°C° 0 mm 0 mps 653 mmHg 51%
    06:00 +15°C° 0 mm 0 mps 654 mmHg 52%
    07:00 +15°C° 0 mm 1 mps 654 mmHg 52%
    08:00 +20°C° 0 mm 1 mps 655 mmHg 45%
    09:00 +24°C° 0 mm 2 mps 656 mmHg 37%
    10:00 +27°C° 0 mm 3 mps 656 mmHg 29%
    11:00 +28°C° 0 mm 2 mps 656 mmHg 26%
    12:00 +30°C° 0 mm 2 mps 656 mmHg 23%
    13:00 +31°C° 0 mm 1 mps 656 mmHg 21%
    14:00 +30°C° 0 mm 1 mps 655 mmHg 22%
    15:00 +29°C° 0 mm 1 mps 655 mmHg 23%
    16:00 +29°C° 0 mm 1 mps 654 mmHg 24%
    17:00 +26°C° 0 mm 1 mps 654 mmHg 28%
    18:00 +24°C° 0 mm 1 mps 654 mmHg 32%
    19:00 +22°C° 0 mm 1 mps 654 mmHg 36%
    20:00 +21°C° 0 mm 1 mps 654 mmHg 39%
    21:00 +20°C° 0 mm 1 mps 654 mmHg 41%
    22:00 +19°C° 0 mm 1 mps 654 mmHg 43%
    23:00 +18°C° 0 mm 1 mps 654 mmHg 46%

    4 Junio, Jueves

    Tiempo Temperatura Precipitaciones Viento Presión Humedad
    00:00 +18°C° 0 mm 1 mps 653 mmHg 48%
    01:00 +16°C° 0 mm 1 mps 653 mmHg 51%
    02:00 +15°C° 0 mm 1 mps 653 mmHg 53%
    03:00 +15°C° 0 mm 1 mps 653 mmHg 54%
    04:00 +13°C° 0 mm 0 mps 652 mmHg 55%
    05:00 +13°C° 0 mm 0 mps 653 mmHg 55%
    06:00 +13°C° 0 mm 0 mps 653 mmHg 55%
    07:00 +14°C° 0 mm 0 mps 654 mmHg 54%
    08:00 +19°C° 0 mm 1 mps 655 mmHg 44%
    09:00 +23°C° 0 mm 2 mps 656 mmHg 35%
    10:00 +27°C° 0 mm 3 mps 657 mmHg 25%
    11:00 +29°C° 0 mm 2 mps 656 mmHg 23%
    12:00 +30°C° 0 mm 2 mps 656 mmHg 21%
    13:00 +31°C° 0 mm 2 mps 656 mmHg 18%
    14:00 +31°C° 0 mm 1 mps 655 mmHg 19%
    15:00 +31°C° 0 mm 1 mps 655 mmHg 19%
    16:00 +30°C° 0 mm 1 mps 654 mmHg 19%
    17:00 +27°C° 0 mm 1 mps 654 mmHg 23%
    18:00 +24°C° 0 mm 1 mps 654 mmHg 28%
    19:00 +22°C° 0 mm 1 mps 654 mmHg 32%
    20:00 +20°C° 0 mm 1 mps 654 mmHg 35%
    21:00 +19°C° 0 mm 1 mps 654 mmHg 38%
    22:00 +18°C° 0 mm 1 mps 654 mmHg 41%
    23:00 +18°C° 0 mm 1 mps 654 mmHg 42%

    5 Junio, Viernes

    Tiempo Temperatura Precipitaciones Viento Presión Humedad
    00:00 +16°C° 0 mm 1 mps 654 mmHg 44%
    01:00 +15°C° 0 mm 1 mps 654 mmHg 46%
    02:00 +15°C° 0 mm 1 mps 654 mmHg 48%
    03:00 +14°C° 0 mm 1 mps 654 mmHg 50%
    04:00 +14°C° 0 mm 1 mps 654 mmHg 52%
    05:00 +14°C° 0 mm 1 mps 654 mmHg 52%
    06:00 +14°C° 0 mm 1 mps 654 mmHg 52%
    07:00 +14°C° 0 mm 1 mps 655 mmHg 52%
    08:00 +17°C° 0 mm 2 mps 655 mmHg 44%
    09:00 +21°C° 0 mm 2 mps 656 mmHg 35%
    10:00 +26°C° 0 mm 3 mps 657 mmHg 27%
    11:00 +28°C° 0 mm 3 mps 657 mmHg 24%
    12:00 +30°C° 0 mm 3 mps 657 mmHg 22%
    13:00 +31°C° 0 mm 3 mps 656 mmHg 19%
    14:00 +31°C° 0 mm 3 mps 656 mmHg 19%
    15:00 +31°C° 0 mm 2 mps 656 mmHg 18%
    16:00 +31°C° 0 mm 2 mps 656 mmHg 18%
    17:00 +28°C° 0 mm 1 mps 655 mmHg 22%
    18:00 +24°C° 0 mm 1 mps 655 mmHg 27%
    19:00 +21°C° 0 mm 1 mps 654 mmHg 32%
    20:00 +20°C° 0 mm 1 mps 655 mmHg 34%
    21:00 +19°C° 0 mm 1 mps 655 mmHg 37%
    22:00 +18°C° 0 mm 1 mps 655 mmHg 40%
    23:00 +16°C° 0 mm 1 mps 655 mmHg 43%

    6 Junio, Sábado

    Tiempo Temperatura Precipitaciones Viento Presión Humedad
    00:00 +15°C° 0 mm 1 mps 654 mmHg 46%
    01:00 +14°C° 0 mm 1 mps 654 mmHg 48%
    02:00 +13°C° 0 mm 0 mps 654 mmHg 50%
    03:00 +12°C° 0 mm 0 mps 653 mmHg 52%
    04:00 +12°C° 0 mm 0 mps 653 mmHg 54%
    05:00 +12°C° 0 mm 0 mps 654 mmHg 54%
    06:00 +12°C° 0 mm 0 mps 654 mmHg 54%
    07:00 +12°C° 0 mm 0 mps 654 mmHg 54%
    08:00 +18°C° 0 mm 1 mps 655 mmHg 44%
    09:00 +21°C° 0 mm 2 mps 656 mmHg 35%
    10:00 +25°C° 0 mm 3 mps 657 mmHg 25%
    11:00 +27°C° 0 mm 3 mps 657 mmHg 22%
    12:00 +29°C° 0 mm 3 mps 656 mmHg 20%
    13:00 +31°C° 0 mm 3 mps 656 mmHg 17%
    14:00 +31°C° 0 mm 3 mps 656 mmHg 17%
    15:00 +30°C° 0 mm 3 mps 655 mmHg 17%
    16:00 +30°C° 0 mm 2 mps 655 mmHg 17%
    17:00 +27°C° 0 mm 2 mps 655 mmHg 21%
    18:00 +24°C° 0 mm 2 mps 655 mmHg 25%
    19:00 +21°C° 0 mm 1 mps 654 mmHg 30%
    20:00 +18°C° 0 mm 2 mps 654 mmHg 31%
    21:00 +17°C° 0 mm 2 mps 654 mmHg 33%
    22:00 +16°C° 0 mm 2 mps 655 mmHg 35%
    23:00 +15°C° 0 mm 1 mps 654 mmHg 38%
    Mostrar más